Location: B�rgermoos
(47.6500°N, 9.0667°E)
Time: 16:45:55
(UTC+00:00)

Vanguard 1 - Pass Details

Date: 04 August 2021
Orbit: 652 x 3831 km, 34.3° (Epoch: 17 September)

Event Time Altitude Azimuth Distance (km) Brightness Sun altitude
Rises 09:35:39 0° 225° (SW) 2,964 12.5 51.5°
Reaches altitude 10° 09:38:28 10° 203° (SSW) 2,143 12.1 51.9°
Maximum altitude 09:41:36 17° 161° (SSE) 1,881 12.4 52.3°
Drops below altitude 10° 09:45:24 10° 121° (ESE) 2,679 13.1 52.7°
Sets 09:49:34 0° 104° (ESE) 4,100 13.7 53.2°
